START_TIME,STEP,MOV.,M29,t_acc.,H22,t_acc.,H26,t_acc.,H30,t_acc.
1979-07-13 21:00:32.210 ,0,0,0.,24.0,0.,24.0,0.,24.0,0.,24.0
1979-07-13 21:00:56.210 ,0,1,0.,24.0,0.,24.0,0.,24.0,0.,24.0
1979-07-13 21:01:20.210 ,0,0,0.,24.0,0.,24.0,0.,24.0,0.,24.0
1979-07-13 21:01:44.210 ,1,1,0.,24.0,0.,24.0,0.,24.0,0.,24.0
1979-07-13 21:02:08.210 ,1,0,0.,24.0,0.,24.0,0.,24.0,0.,24.0
1979-07-13 21:02:32.210 ,2,1,0.,24.0,0.,24.0,0.,24.0,0.,24.0
1979-07-13 21:02:56.210 ,2,0,0.,24.0,0.,24.0,0.,24.0,0.,24.0
1979-07-13 21:03:20.210 ,3,1,0.,24.0,0.,24.0,0.,24.0,0.,24.0
1979-07-13 21:03:44.210 ,3,0,0.,24.0,0.,24.0,0.,24.0,0.,24.0
1979-07-13 21:04:08.210 ,4,1,0.,24.0,0.,24.0,0.,24.0,0.,24.0
1979-07-13 21:04:32.210 ,4,0,0.,24.0,0.,24.0,0.,24.0,0.,24.0
1979-07-13 21:04:56.210 ,5,1,0.,24.0,0.,24.0,0.,24.0,0.,24.0
1979-07-13 21:05:20.210 ,5,0,0.,24.0,0.,24.0,0.,24.0,0.,24.0
1979-07-13 21:05:44.210 ,6,1,0.,24.0,0.,24.0,0.,24.0,0.,24.0
1979-07-13 21:06:08.210 ,6,0,0.,24.0,0.,24.0,0.,24.0,0.,24.0
1979-07-13 21:06:32.210 ,7,0,0.,24.0,0.,24.0,0.,24.0,0.,24.0
1979-07-13 21:06:56.210 ,7,0,0.,24.0,0.,24.0,0.,24.0,0.,24.0
1979-07-13 21:07:20.210 ,5,1,0.,24.0,0.,24.0,0.,24.0,0.,24.0
1979-07-13 21:07:44.210 ,1,1,0.,24.0,0.,24.0,0.,24.0,0.,24.0
1979-07-13 21:08:08.210 ,2,1,0.,24.0,0.,24.0,0.,24.0,0.,24.0
1979-07-13 21:08:32.210 ,6,1,0.,24.0,0.,24.0,0.,24.0,0.,24.0
1979-07-13 21:08:56.210 ,5,1,0.,24.0,0.,24.0,0.,24.0,0.,24.0
1979-07-13 21:09:20.210 ,1,1,0.,24.0,0.,24.0,0.,24.0,0.,24.0
1979-07-13 21:09:44.210 ,2,1,0.,24.0,0.,24.0,0.,24.0,0.,24.0
1979-07-13 21:10:08.210 ,6,1,0.,24.0,0.,24.0,0.,24.0,0.,24.0
1979-07-13 21:10:32.210 ,5,1,0.,24.0,0.,24.0,0.,24.0,0.,24.0
1979-07-13 21:10:56.210 ,1,1,0.,24.0,0.,24.0,0.,24.0,0.,24.0
1979-07-13 21:11:20.210 ,2,1,0.,24.0,0.,24.0,0.,24.0,0.,24.0
1979-07-13 21:11:44.210 ,6,1,0.,24.0,0.,24.0,0.,24.0,0.,24.0
1979-07-13 21:12:08.210 ,5,1,0.,24.0,0.,24.0,0.,24.0,0.,24.0
1979-07-13 21:12:32.210 ,1,1,0.,24.0,0.,24.0,0.,24.0,0.,24.0
1979-07-13 21:12:56.210 ,2,1,0.,24.0,0.,24.0,0.,24.0,0.,24.0
1979-07-13 21:13:20.210 ,6,1,0.,24.0,0.,24.0,0.,24.0,0.,24.0
1979-07-13 21:13:44.210 ,5,1,0.,24.0,0.,24.0,0.,24.0,0.,24.0
1979-07-13 21:14:08.210 ,1,1,0.,24.0,0.,24.0,0.,24.0,0.,24.0
1979-07-13 21:14:32.210 ,2,1,0.,24.0,0.,24.0,0.,24.0,0.,24.0
1979-07-13 21:14:56.210 ,6,1,0.,24.0,0.,24.0,0.,24.0,0.,24.0
1979-07-13 21:15:20.210 ,5,1,0.,24.0,0.,24.0,0.,24.0,0.,24.0
1979-07-13 21:15:44.210 ,1,1,0.,24.0,0.,24.0,0.,24.0,0.,24.0
1979-07-13 21:16:08.210 ,2,1,0.,24.0,0.,24.0,0.,24.0,0.,24.0
1979-07-13 21:16:32.210 ,6,1,0.,24.0,0.,24.0,0.,24.0,0.,24.0
1979-07-13 21:16:56.210 ,5,1,0.,24.0,0.,24.0,0.,24.0,0.,24.0
1979-07-13 21:17:20.210 ,1,1,0.,24.0,0.,24.0,0.,24.0,0.,24.0
1979-07-13 21:17:44.210 ,0,0,0.,24.0,0.,24.0,0.,24.0,0.,24.0
1979-07-13 21:18:08.210 ,0,0,0.,24.0,0.,24.0,0.,24.0,0.,24.0
1979-07-13 21:18:32.210 ,5,1,0.,24.0,0.,24.0,0.,24.0,0.,24.0
1979-07-13 21:18:56.210 ,5,0,0.,24.0,0.,24.0,0.,24.0,0.,24.0
1979-07-13 21:19:20.210 ,4,1,0.,24.0,0.,24.0,0.,24.0,0.,24.0
1979-07-13 21:19:44.210 ,4,0,0.,24.0,0.,24.0,0.,24.0,0.,24.0
1979-07-13 21:20:08.210 ,3,1,0.,24.0,0.,24.0,0.,24.0,0.,24.0
1979-07-13 21:20:32.210 ,3,0,0.,24.0,0.,24.0,0.,24.0,0.,24.0
1979-07-13 21:20:56.210 ,2,1,0.,24.0,0.,24.0,0.,24.0,0.,24.0
1979-07-13 21:21:20.210 ,2,0,0.,24.0,0.,24.0,0.,24.0,0.,24.0
1979-07-13 21:21:44.210 ,1,1,0.,24.0,0.,24.0,0.,24.0,0.,24.0
1979-07-13 21:22:08.210 ,1,0,0.,24.0,0.,24.0,0.,24.0,0.,24.0
1979-07-13 21:22:32.210 ,0,1,0.,24.0,0.,24.0,0.,24.0,0.,24.0
1979-07-13 21:22:56.210 ,0,0,0.,24.0,0.,24.0,0.,24.0,0.,24.0
1979-07-13 21:24:08.210 ,0,0,0.,24.0,0.,24.0,0.,24.0,0.,24.0
1979-07-13 21:24:32.210 ,0,0,0.,24.0,0.,24.0,0.,24.0,0.,24.0
1979-07-13 21:24:56.210 ,2,1,0.,24.0,0.,24.0,0.,24.0,0.,24.0
1979-07-13 21:25:20.210 ,2,0,0.,24.0,0.,24.0,0.,24.0,0.,24.0
1979-07-13 21:25:44.210 ,3,1,0.,24.0,0.,24.0,0.,24.0,0.,24.0
1979-07-13 21:26:08.210 ,3,0,0.,24.0,0.,24.0,0.,24.0,0.,24.0
1979-07-13 21:26:32.210 ,4,1,0.,24.0,0.,24.0,0.,24.0,0.,24.0
1979-07-13 21:26:56.210 ,4,0,0.,24.0,0.,24.0,0.,24.0,0.,24.0
1979-07-13 21:27:20.210 ,5,1,0.,24.0,0.,24.0,0.,24.0,0.,24.0
1979-07-13 21:27:44.210 ,5,0,0.,24.0,0.,24.0,0.,24.0,0.,24.0
1979-07-13 21:28:08.210 ,6,1,0.,24.0,0.,24.0,0.,24.0,0.,24.0
1979-07-13 21:28:32.210 ,6,0,0.,24.0,0.,24.0,0.,24.0,0.,24.0
1979-07-13 21:28:56.210 ,7,1,0.,24.0,0.,24.0,0.,24.0,0.,24.0
1979-07-13 21:29:20.210 ,7,0,0.,24.0,0.,24.0,0.,24.0,0.,24.0
1979-07-13 21:29:44.210 ,7,1,0.,24.0,0.,24.0,0.,24.0,0.,24.0
1979-07-13 21:30:08.210 ,7,0,0.,24.0,0.,24.0,0.,24.0,0.,24.0
1979-07-13 21:30:32.210 ,6,1,0.,24.0,0.,24.0,0.,24.0,0.,24.0
1979-07-13 21:30:56.210 ,6,0,0.,24.0,0.,24.0,0.,24.0,0.,24.0
1979-07-13 21:31:20.210 ,5,1,0.,24.0,0.,24.0,0.,24.0,0.,24.0
1979-07-13 21:31:44.210 ,5,0,0.,24.0,0.,24.0,0.,24.0,0.,24.0
1979-07-13 21:32:08.210 ,4,1,0.,24.0,0.,24.0,0.,24.0,0.,24.0
1979-07-13 21:32:32.210 ,4,0,0.,24.0,0.,24.0,0.,24.0,0.,24.0
1979-07-13 21:32:56.210 ,3,1,0.,24.0,0.,24.0,0.,24.0,0.,24.0
1979-07-13 21:33:20.210 ,3,0,0.,24.0,0.,24.0,0.,24.0,0.,24.0
1979-07-13 21:33:44.210 ,2,1,0.,24.0,0.,24.0,0.,24.0,0.,24.0
1979-07-13 21:34:08.210 ,2,0,0.,24.0,0.,24.0,0.,24.0,0.,24.0
1979-07-13 21:34:32.210 ,1,1,0.,24.0,0.,24.0,0.,24.0,0.,24.0
1979-07-13 21:34:56.210 ,1,0,0.,24.0,0.,24.0,0.,24.0,0.,24.0
1979-07-13 21:35:20.210 ,0,1,0.,24.0,0.,24.0,0.,24.0,0.,24.0
1979-07-13 21:35:44.210 ,0,0,0.,24.0,0.,24.0,0.,24.0,0.,24.0
1979-07-13 21:36:08.210 ,0,1,0.,24.0,0.,24.0,0.,24.0,0.,24.0
1979-07-13 21:36:32.210 ,0,0,0.,24.0,0.,24.0,0.,24.0,0.,24.0
1979-07-13 21:36:56.210 ,1,1,0.,24.0,0.,24.0,0.,24.0,0.,24.0
1979-07-13 21:37:20.210 ,1,0,0.,24.0,0.,24.0,0.,24.0,0.,24.0
1979-07-13 21:37:44.210 ,2,1,0.,24.0,0.,24.0,0.,24.0,0.,24.0
1979-07-13 21:38:08.210 ,2,0,0.,24.0,0.,24.0,0.,24.0,0.,24.0
1979-07-13 21:38:32.210 ,3,1,0.,24.0,0.,24.0,0.,24.0,0.,24.0
1979-07-13 21:38:56.210 ,3,0,0.,24.0,0.,24.0,0.,24.0,0.,24.0
1979-07-13 21:39:20.210 ,4,1,0.,24.0,0.,24.0,0.,24.0,0.,24.0
1979-07-13 21:39:44.210 ,4,0,0.,24.0,0.,24.0,0.,24.0,0.,24.0
1979-07-13 21:40:08.210 ,5,1,0.,24.0,0.,24.0,0.,24.0,0.,24.0
1979-07-13 21:40:32.210 ,5,0,0.,24.0,0.,24.0,0.,24.0,0.,24.0
1979-07-13 21:40:56.210 ,6,1,0.,24.0,0.,24.0,0.,24.0,0.,24.0
1979-07-13 21:41:20.210 ,6,0,0.,24.0,0.,24.0,0.,24.0,0.,24.0
1979-07-13 21:41:44.210 ,7,1,0.,24.0,0.,24.0,0.,24.0,0.,24.0
1979-07-13 21:42:08.210 ,7,0,0.,24.0,0.,24.0,0.,24.0,0.,24.0
1979-07-13 21:42:32.210 ,7,1,0.,24.0,0.,24.0,0.,24.0,0.,24.0
1979-07-13 21:42:56.210 ,7,0,0.,24.0,0.,24.0,0.,24.0,0.,24.0
1979-07-13 21:44:56.210 ,0,0,0.,24.0,0.,24.0,0.,24.0,0.,24.0
1979-07-13 21:45:20.210 ,0,0,0.,24.0,0.,24.0,0.,24.0,0.,24.0
1979-07-13 21:45:44.210 ,3,1,0.,24.0,0.,24.0,0.,24.0,0.,24.0
1979-07-13 21:46:08.210 ,3,0,0.,24.0,0.,24.0,0.,24.0,0.,24.0
1979-07-13 21:46:32.210 ,2,1,0.,24.0,0.,24.0,0.,24.0,0.,24.0
1979-07-13 21:46:56.210 ,2,0,0.,24.0,0.,24.0,0.,24.0,0.,24.0
1979-07-13 21:47:20.210 ,1,1,0.,24.0,0.,24.0,0.,24.0,0.,24.0
1979-07-13 21:47:44.210 ,1,0,0.,24.0,0.,24.0,0.,24.0,0.,24.0
1979-07-13 21:48:08.210 ,0,1,0.,24.0,0.,24.0,0.,24.0,0.,24.0
1979-07-13 21:48:32.210 ,0,0,0.,24.0,0.,24.0,0.,24.0,0.,24.0
1979-07-13 21:48:56.210 ,0,1,0.,24.0,0.,24.0,0.,24.0,0.,24.0
1979-07-13 21:49:20.210 ,0,0,0.,24.0,0.,24.0,0.,24.0,0.,24.0
1979-07-13 21:49:44.210 ,1,1,0.,24.0,0.,24.0,0.,24.0,0.,24.0
1979-07-13 21:50:08.210 ,1,0,0.,24.0,0.,24.0,0.,24.0,0.,24.0
1979-07-13 21:50:32.210 ,2,1,0.,24.0,0.,24.0,0.,24.0,0.,24.0
1979-07-13 21:50:56.210 ,2,0,0.,24.0,0.,24.0,0.,24.0,0.,24.0
1979-07-13 21:51:20.210 ,3,1,0.,24.0,0.,24.0,0.,24.0,0.,24.0
1979-07-13 21:51:44.210 ,3,0,0.,24.0,0.,24.0,0.,24.0,0.,24.0
1979-07-13 21:52:08.210 ,4,1,0.,24.0,0.,24.0,0.,24.0,0.,24.0
1979-07-13 21:52:32.210 ,4,0,0.,24.0,0.,24.0,0.,24.0,0.,24.0
1979-07-13 21:52:56.210 ,5,1,0.,24.0,0.,24.0,0.,24.0,0.,24.0
1979-07-13 21:53:20.210 ,5,0,0.,24.0,0.,24.0,0.,24.0,0.,24.0
1979-07-13 21:53:44.210 ,6,1,0.,24.0,0.,24.0,0.,24.0,0.,24.0
1979-07-13 21:54:08.210 ,6,0,0.,24.0,0.,24.0,0.,24.0,0.,24.0
1979-07-13 21:54:32.210 ,7,0,0.,24.0,0.,24.0,0.,24.0,0.,24.0
1979-07-13 21:54:56.210 ,7,0,0.,24.0,0.,24.0,0.,24.0,0.,24.0
1979-07-13 21:55:20.210 ,5,1,0.,24.0,0.,24.0,0.,24.0,0.,24.0
1979-07-13 21:55:44.210 ,1,1,0.,24.0,0.,24.0,0.,24.0,0.,24.0
1979-07-13 21:56:08.210 ,2,1,0.,24.0,0.,24.0,0.,24.0,0.,24.0
1979-07-13 21:56:32.210 ,6,1,0.,24.0,0.,24.0,0.,24.0,0.,24.0
1979-07-13 21:56:56.210 ,5,1,0.,24.0,0.,24.0,0.,24.0,0.,24.0
1979-07-13 21:57:20.210 ,1,1,0.,24.0,0.,24.0,0.,24.0,0.,24.0
1979-07-13 21:57:44.210 ,2,1,0.,24.0,0.,24.0,0.,24.0,0.,24.0
1979-07-13 21:58:08.210 ,6,1,0.,24.0,0.,24.0,0.,24.0,0.,24.0
1979-07-13 21:58:32.210 ,5,1,0.,24.0,0.,24.0,0.,24.0,0.,24.0
1979-07-13 21:58:56.210 ,1,1,0.,24.0,0.,24.0,0.,24.0,0.,24.0
1979-07-13 21:59:20.210 ,2,1,0.,24.0,0.,24.0,0.,24.0,0.,24.0
1979-07-13 21:59:44.210 ,6,1,0.,24.0,0.,24.0,0.,24.0,0.,24.0
1979-07-13 22:00:08.210 ,5,1,0.,24.0,0.,24.0,0.,24.0,0.,24.0
1979-07-13 22:00:32.210 ,1,1,0.,24.0,0.,24.0,0.,24.0,0.,24.0
1979-07-13 22:00:56.210 ,2,1,0.,24.0,0.,24.0,0.,24.0,0.,24.0
1979-07-13 22:01:20.210 ,6,1,0.,24.0,0.,24.0,0.,24.0,0.,24.0
1979-07-13 22:01:44.210 ,5,1,0.,24.0,0.,24.0,0.,24.0,0.,24.0
1979-07-13 22:02:08.210 ,1,1,0.,24.0,0.,24.0,0.,24.0,0.,24.0
1979-07-13 22:02:32.210 ,2,1,0.,24.0,0.,24.0,0.,24.0,0.,24.0
1979-07-13 22:02:56.210 ,6,1,0.,24.0,0.,24.0,0.,24.0,0.,24.0
1979-07-13 22:03:20.210 ,5,1,0.,24.0,0.,24.0,0.,24.0,0.,24.0
1979-07-13 22:03:44.210 ,1,1,0.,24.0,0.,24.0,0.,24.0,0.,24.0
1979-07-13 22:04:08.210 ,2,1,0.,24.0,0.,24.0,0.,24.0,0.,24.0
1979-07-13 22:04:32.210 ,6,1,0.,24.0,0.,24.0,0.,24.0,0.,24.0
1979-07-13 22:04:56.210 ,5,1,0.,24.0,0.,24.0,0.,24.0,0.,24.0
1979-07-13 22:05:20.210 ,1,1,0.,24.0,0.,24.0,0.,24.0,0.,24.0
1979-07-13 22:05:44.210 ,0,0,0.,24.0,0.,24.0,0.,24.0,0.,24.0
1979-07-13 22:06:08.210 ,0,0,0.,24.0,0.,24.0,0.,24.0,0.,24.0
1979-07-13 22:06:32.210 ,5,1,0.,24.0,0.,24.0,0.,24.0,0.,24.0
1979-07-13 22:06:56.210 ,5,0,0.,24.0,0.,24.0,0.,24.0,0.,24.0
1979-07-13 22:07:20.210 ,4,1,0.,24.0,0.,24.0,0.,24.0,0.,24.0
1979-07-13 22:07:44.210 ,4,0,0.,24.0,0.,24.0,0.,24.0,0.,24.0
1979-07-13 22:08:08.210 ,3,1,0.,24.0,0.,24.0,0.,24.0,0.,24.0
1979-07-13 22:08:32.210 ,3,0,0.,24.0,0.,24.0,0.,24.0,0.,24.0
1979-07-13 22:08:56.210 ,2,1,0.,24.0,0.,24.0,0.,24.0,0.,24.0
1979-07-13 22:09:20.210 ,2,0,0.,24.0,0.,24.0,0.,24.0,0.,24.0
1979-07-13 22:09:44.210 ,1,1,0.,24.0,0.,24.0,0.,24.0,0.,24.0
1979-07-13 22:10:08.210 ,1,0,0.,24.0,0.,24.0,0.,24.0,0.,24.0
1979-07-13 22:10:32.210 ,0,1,0.,24.0,0.,24.0,0.,24.0,0.,24.0
1979-07-13 22:10:56.210 ,0,0,0.,24.0,0.,24.0,0.,24.0,0.,24.0
1979-07-13 22:12:32.210 ,0,0,0.,24.0,0.,24.0,0.,24.0,0.,24.0
1979-07-13 22:12:56.210 ,2,1,0.,24.0,0.,24.0,0.,24.0,0.,24.0
1979-07-13 22:13:20.210 ,2,0,0.,24.0,0.,24.0,0.,24.0,0.,24.0
1979-07-13 22:13:44.210 ,3,1,0.,24.0,0.,24.0,0.,24.0,0.,24.0
1979-07-13 22:14:08.210 ,3,0,0.,24.0,0.,24.0,0.,24.0,0.,24.0
1979-07-13 22:14:32.210 ,4,1,0.,24.0,0.,24.0,0.,24.0,0.,24.0
1979-07-13 22:14:56.210 ,4,0,0.,24.0,0.,24.0,0.,24.0,0.,24.0
1979-07-13 22:15:20.210 ,5,1,0.,24.0,0.,24.0,0.,24.0,0.,24.0
1979-07-13 22:15:44.210 ,5,0,0.,24.0,0.,24.0,0.,24.0,0.,24.0
1979-07-13 22:16:08.210 ,6,1,0.,24.0,0.,24.0,0.,24.0,0.,24.0
1979-07-13 22:16:32.210 ,6,0,0.,24.0,0.,24.0,0.,24.0,0.,24.0
1979-07-13 22:16:56.210 ,7,1,0.,24.0,0.,24.0,0.,24.0,0.,24.0
1979-07-13 22:17:20.210 ,7,0,0.,24.0,0.,24.0,0.,24.0,0.,24.0
1979-07-13 22:17:44.210 ,7,1,0.,24.0,0.,24.0,0.,24.0,0.,24.0
1979-07-13 22:18:08.210 ,7,0,0.,24.0,0.,24.0,0.,24.0,0.,24.0
1979-07-13 22:18:32.210 ,6,1,0.,24.0,0.,24.0,0.,24.0,0.,24.0
1979-07-13 22:18:56.210 ,6,0,0.,24.0,0.,24.0,0.,24.0,0.,24.0
1979-07-13 22:19:20.210 ,5,1,0.,24.0,0.,24.0,0.,24.0,0.,24.0
1979-07-13 22:19:44.210 ,5,0,0.,24.0,0.,24.0,0.,24.0,0.,24.0
1979-07-13 22:20:08.210 ,4,1,0.,24.0,0.,24.0,0.,24.0,0.,24.0
1979-07-13 22:20:32.210 ,4,0,0.,24.0,0.,24.0,0.,24.0,0.,24.0
1979-07-13 22:20:56.210 ,3,1,0.,24.0,0.,24.0,0.,24.0,0.,24.0
1979-07-13 22:21:20.210 ,3,0,0.,24.0,0.,24.0,0.,24.0,0.,24.0
1979-07-13 22:21:44.210 ,2,1,0.,24.0,0.,24.0,0.,24.0,0.,24.0
1979-07-13 22:22:08.210 ,2,0,0.,24.0,0.,24.0,0.,24.0,0.,24.0
1979-07-13 22:22:32.210 ,1,1,0.,24.0,0.,24.0,0.,24.0,0.,24.0
1979-07-13 22:22:56.210 ,1,0,0.,24.0,0.,24.0,0.,24.0,0.,24.0
1979-07-13 22:23:20.210 ,0,1,0.,24.0,0.,24.0,0.,24.0,0.,24.0
1979-07-13 22:23:44.210 ,0,0,0.,24.0,0.,24.0,0.,24.0,0.,24.0
1979-07-13 22:24:08.210 ,0,1,0.,24.0,0.,24.0,0.,24.0,0.,24.0
1979-07-13 22:24:32.210 ,0,0,0.,24.0,0.,24.0,0.,24.0,0.,24.0
1979-07-13 22:24:56.210 ,1,1,0.,24.0,0.,24.0,0.,24.0,0.,24.0
1979-07-13 22:25:20.210 ,1,0,0.,24.0,0.,24.0,0.,24.0,0.,24.0
1979-07-13 22:25:20.210 ,1,0,0.,24.0,0.,24.0,0.,24.0,0.,24.0
1979-07-13 22:25:44.210 ,2,1,0.,24.0,0.,24.0,0.,24.0,0.,24.0
1979-07-13 22:26:08.210 ,2,0,0.,24.0,0.,24.0,0.,24.0,0.,24.0
1979-07-13 22:26:32.210 ,3,1,0.,24.0,0.,24.0,0.,24.0,0.,24.0
1979-07-13 22:26:56.210 ,3,0,0.,24.0,0.,24.0,0.,24.0,0.,24.0
1979-07-13 22:27:20.210 ,4,1,0.,24.0,0.,24.0,0.,24.0,0.,24.0
1979-07-13 22:27:44.210 ,4,0,0.,24.0,0.,24.0,0.,24.0,0.,24.0
1979-07-13 22:28:08.210 ,5,1,0.,24.0,0.,24.0,0.,24.0,0.,24.0
1979-07-13 22:28:32.210 ,5,0,0.,24.0,0.,24.0,0.,24.0,0.,24.0
1979-07-13 22:28:56.210 ,6,1,0.,24.0,0.,24.0,0.,24.0,0.,24.0
1979-07-13 22:29:20.210 ,6,0,0.,24.0,0.,24.0,0.,24.0,0.,24.0
1979-07-13 22:29:44.210 ,7,1,0.,24.0,0.,24.0,0.,24.0,0.,24.0
1979-07-13 22:30:08.210 ,7,0,0.,24.0,0.,24.0,0.,24.0,0.,24.0
1979-07-13 22:30:32.210 ,7,1,0.,24.0,0.,24.0,0.,24.0,0.,24.0
1979-07-13 22:30:56.210 ,7,0,0.,24.0,0.,24.0,0.,24.0,0.,24.0
1979-07-13 22:31:20.210 ,6,1,0.,24.0,0.,24.0,0.,24.0,0.,24.0
1979-07-13 22:31:44.210 ,6,0,0.,24.0,0.,24.0,0.,24.0,0.,24.0
1979-07-13 22:32:08.210 ,5,1,0.,24.0,0.,24.0,0.,24.0,0.,24.0
1979-07-13 22:32:32.210 ,5,0,0.,24.0,0.,24.0,0.,24.0,0.,24.0
1979-07-13 22:32:56.210 ,4,1,0.,24.0,0.,24.0,0.,24.0,0.,24.0
1979-07-13 22:33:20.210 ,4,0,0.,24.0,0.,24.0,0.,24.0,0.,24.0
1979-07-13 22:33:44.210 ,3,1,0.,24.0,0.,24.0,0.,24.0,0.,24.0
1979-07-13 22:34:08.210 ,3,0,0.,24.0,0.,24.0,0.,24.0,0.,24.0
1979-07-13 22:34:32.210 ,2,1,0.,24.0,0.,24.0,0.,24.0,0.,24.0
1979-07-13 22:34:56.210 ,2,0,0.,24.0,0.,24.0,0.,24.0,0.,24.0
1979-07-13 22:35:20.210 ,1,1,0.,24.0,0.,24.0,0.,24.0,0.,24.0
1979-07-13 22:35:44.210 ,1,0,0.,24.0,0.,24.0,0.,24.0,0.,24.0
1979-07-13 22:36:08.210 ,0,1,0.,24.0,0.,24.0,0.,24.0,0.,24.0
1979-07-13 22:36:32.210 ,0,0,0.,24.0,0.,24.0,0.,24.0,0.,24.0
1979-07-13 22:36:56.210 ,0,1,0.,24.0,0.,24.0,0.,24.0,0.,24.0
1979-07-13 22:37:20.210 ,0,0,0.,24.0,0.,24.0,0.,24.0,0.,24.0
1979-07-13 22:37:44.210 ,1,1,0.,24.0,0.,24.0,0.,24.0,0.,24.0
1979-07-13 22:38:08.210 ,1,0,0.,24.0,0.,24.0,0.,24.0,0.,24.0
1979-07-13 22:38:32.210 ,2,1,0.,24.0,0.,24.0,0.,24.0,0.,24.0
1979-07-13 22:38:56.210 ,2,0,0.,24.0,0.,24.0,0.,24.0,0.,24.0
1979-07-13 22:39:20.210 ,3,1,0.,24.0,0.,24.0,0.,24.0,0.,24.0
1979-07-13 22:39:44.210 ,3,0,0.,24.0,0.,24.0,0.,24.0,0.,24.0
1979-07-13 22:40:08.210 ,4,1,0.,24.0,0.,24.0,0.,24.0,0.,24.0
1979-07-13 22:40:32.210 ,4,0,0.,24.0,0.,24.0,0.,24.0,0.,24.0
1979-07-13 22:40:56.210 ,5,1,0.,24.0,0.,24.0,0.,24.0,0.,24.0
1979-07-13 22:41:20.210 ,5,0,0.,24.0,0.,24.0,0.,24.0,0.,24.0
1979-07-13 22:41:44.210 ,6,1,0.,24.0,0.,24.0,0.,24.0,0.,24.0
1979-07-13 22:42:08.210 ,6,0,0.,24.0,0.,24.0,0.,24.0,0.,24.0
1979-07-13 22:42:32.210 ,7,0,0.,24.0,0.,24.0,0.,24.0,0.,24.0
1979-07-13 22:42:56.210 ,7,0,0.,24.0,0.,24.0,0.,24.0,0.,24.0
1979-07-13 22:43:20.210 ,5,1,0.,24.0,0.,24.0,0.,24.0,0.,24.0
1979-07-13 22:43:44.210 ,1,1,0.,24.0,0.,24.0,0.,24.0,0.,24.0
1979-07-13 22:44:08.210 ,2,1,0.,24.0,0.,24.0,0.,24.0,0.,24.0
1979-07-13 22:44:32.210 ,6,1,0.,24.0,0.,24.0,0.,24.0,0.,24.0
1979-07-13 22:44:56.210 ,5,1,0.,24.0,0.,24.0,0.,24.0,0.,24.0
1979-07-13 22:45:20.210 ,1,1,0.,24.0,0.,24.0,0.,24.0,0.,24.0
1979-07-13 22:45:44.210 ,2,1,0.,24.0,0.,24.0,0.,24.0,0.,24.0
1979-07-13 22:46:08.210 ,6,1,0.,24.0,0.,24.0,0.,24.0,0.,24.0
1979-07-13 22:46:32.210 ,5,1,0.,24.0,0.,24.0,0.,24.0,0.,24.0
1979-07-13 22:46:56.210 ,1,1,0.,24.0,0.,24.0,0.,24.0,0.,24.0
1979-07-13 22:47:20.210 ,2,1,0.,24.0,0.,24.0,0.,24.0,0.,24.0
1979-07-13 22:47:44.210 ,6,1,0.,24.0,0.,24.0,0.,24.0,0.,24.0
1979-07-13 22:48:08.210 ,5,1,0.,24.0,0.,24.0,0.,24.0,0.,24.0
1979-07-13 22:48:32.210 ,1,1,0.,24.0,0.,24.0,0.,24.0,0.,24.0
1979-07-13 22:48:56.210 ,2,1,0.,24.0,0.,24.0,0.,24.0,0.,24.0
1979-07-13 22:49:20.210 ,6,1,0.,24.0,0.,24.0,0.,24.0,0.,24.0
1979-07-13 22:49:44.210 ,5,1,0.,24.0,0.,24.0,0.,24.0,0.,24.0
1979-07-13 22:50:08.210 ,1,1,0.,24.0,0.,24.0,0.,24.0,0.,24.0
1979-07-13 22:50:32.210 ,2,1,0.,24.0,0.,24.0,0.,24.0,0.,24.0
1979-07-13 22:50:56.210 ,6,1,0.,24.0,0.,24.0,0.,24.0,0.,24.0
1979-07-13 22:51:20.210 ,5,1,0.,24.0,0.,24.0,0.,24.0,0.,24.0
1979-07-13 22:51:44.210 ,1,1,0.,24.0,0.,24.0,0.,24.0,0.,24.0
1979-07-13 22:52:08.210 ,2,1,0.,24.0,0.,24.0,0.,24.0,0.,24.0
1979-07-13 22:52:32.210 ,6,1,0.,24.0,0.,24.0,0.,24.0,0.,24.0
1979-07-13 22:52:56.210 ,5,1,0.,24.0,0.,24.0,0.,24.0,0.,24.0
1979-07-13 22:53:20.210 ,1,1,0.,24.0,0.,24.0,0.,24.0,0.,24.0
1979-07-13 22:53:44.210 ,0,0,0.,24.0,0.,24.0,0.,24.0,0.,24.0
1979-07-13 22:54:08.210 ,0,0,0.,24.0,0.,24.0,0.,24.0,0.,24.0
1979-07-13 22:54:32.210 ,5,1,0.,24.0,0.,24.0,0.,24.0,0.,24.0
1979-07-13 22:54:56.210 ,5,0,0.,24.0,0.,24.0,0.,24.0,0.,24.0
1979-07-13 22:55:20.210 ,4,1,0.,24.0,0.,24.0,0.,24.0,0.,24.0
1979-07-13 22:55:44.210 ,4,0,0.,24.0,0.,24.0,0.,24.0,0.,24.0
1979-07-13 22:56:08.210 ,3,1,0.,24.0,0.,24.0,0.,24.0,0.,24.0
1979-07-13 22:56:32.210 ,3,0,0.,24.0,0.,24.0,0.,24.0,0.,24.0
1979-07-13 22:56:56.210 ,2,1,0.,24.0,0.,24.0,0.,24.0,0.,24.0
1979-07-13 22:57:20.210 ,2,0,0.,24.0,0.,24.0,0.,24.0,0.,24.0
1979-07-13 22:57:44.210 ,1,1,0.,24.0,0.,24.0,0.,24.0,0.,24.0
1979-07-13 22:58:08.210 ,1,0,0.,24.0,0.,24.0,0.,24.0,0.,24.0
1979-07-13 22:58:32.210 ,0,1,0.,24.0,0.,24.0,0.,24.0,0.,24.0
1979-07-13 22:58:56.210 ,0,0,0.,24.0,0.,24.0,0.,24.0,0.,24.0
1979-07-13 22:59:20.210 ,0,1,0.,24.0,0.,24.0,0.,24.0,0.,24.0
1979-07-13 22:59:44.210 ,0,0,0.,24.0,0.,24.0,0.,24.0,0.,24.0
1979-07-13 23:00:08.210 ,1,1,0.,24.0,0.,24.0,0.,24.0,0.,24.0
1979-07-13 23:00:32.210 ,1,0,0.,24.0,0.,24.0,0.,24.0,0.,24.0
1979-07-13 23:00:56.210 ,2,1,0.,24.0,0.,24.0,0.,24.0,0.,24.0
1979-07-13 23:01:20.210 ,2,0,0.,24.0,0.,24.0,0.,24.0,0.,24.0
1979-07-13 23:01:44.210 ,3,1,0.,24.0,0.,24.0,0.,24.0,0.,24.0
1979-07-13 23:02:08.210 ,3,0,0.,24.0,0.,24.0,0.,24.0,0.,24.0
1979-07-13 23:02:32.210 ,4,1,0.,24.0,0.,24.0,0.,24.0,0.,24.0
1979-07-13 23:02:56.210 ,4,0,0.,24.0,0.,24.0,0.,24.0,0.,24.0
1979-07-13 23:03:20.210 ,5,1,0.,24.0,0.,24.0,0.,24.0,0.,24.0
1979-07-13 23:03:44.210 ,5,0,0.,24.0,0.,24.0,0.,24.0,0.,24.0
1979-07-13 23:04:08.210 ,6,1,0.,24.0,0.,24.0,0.,24.0,0.,24.0
1979-07-13 23:04:32.210 ,6,0,0.,24.0,0.,24.0,0.,24.0,0.,24.0
1979-07-13 23:04:56.210 ,7,1,0.,24.0,0.,24.0,0.,24.0,0.,24.0
1979-07-13 23:05:20.210 ,7,0,0.,24.0,0.,24.0,0.,24.0,0.,24.0
1979-07-13 23:05:44.200 ,7,1,0.,24.0,0.,24.0,0.,24.0,0.,24.0
1979-07-13 23:06:08.200 ,7,0,0.,24.0,0.,24.0,0.,24.0,0.,24.0
1979-07-13 23:08:08.200 ,0,0,0.,24.0,0.,24.0,0.,24.0,0.,24.0
1979-07-13 23:08:32.210 ,0,0,0.,24.0,0.,24.0,0.,24.0,0.,24.0
1979-07-13 23:08:56.210 ,3,1,0.,24.0,0.,24.0,0.,24.0,0.,24.0
1979-07-13 23:09:20.210 ,3,0,0.,24.0,0.,24.0,0.,24.0,0.,24.0
1979-07-13 23:09:44.210 ,2,1,0.,24.0,0.,24.0,0.,24.0,0.,24.0
1979-07-13 23:10:08.210 ,2,0,0.,24.0,0.,24.0,0.,24.0,0.,24.0
1979-07-13 23:10:32.210 ,1,1,0.,24.0,0.,24.0,0.,24.0,0.,24.0
1979-07-13 23:10:56.210 ,1,0,0.,24.0,0.,24.0,0.,24.0,0.,24.0
1979-07-13 23:11:20.210 ,0,1,0.,24.0,0.,24.0,0.,24.0,0.,24.0
1979-07-13 23:11:44.210 ,0,0,0.,24.0,0.,24.0,0.,24.0,0.,24.0
1979-07-13 23:12:08.210 ,0,1,0.,24.0,0.,24.0,0.,24.0,0.,24.0
1979-07-13 23:12:32.210 ,0,0,0.,24.0,0.,24.0,0.,24.0,0.,24.0
1979-07-13 23:12:56.210 ,1,1,0.,24.0,0.,24.0,0.,24.0,0.,24.0
1979-07-13 23:13:20.210 ,1,0,0.,24.0,0.,24.0,0.,24.0,0.,24.0
1979-07-13 23:13:44.210 ,2,1,0.,24.0,0.,24.0,0.,24.0,0.,24.0
1979-07-13 23:14:08.210 ,2,0,0.,24.0,0.,24.0,0.,24.0,0.,24.0
1979-07-13 23:14:32.210 ,3,1,0.,24.0,0.,24.0,0.,24.0,0.,24.0
1979-07-13 23:14:56.210 ,3,0,0.,24.0,0.,24.0,0.,24.0,0.,24.0
1979-07-13 23:15:20.210 ,4,1,0.,24.0,0.,24.0,0.,24.0,0.,24.0
1979-07-13 23:15:44.210 ,4,0,0.,24.0,0.,24.0,0.,24.0,0.,24.0
1979-07-13 23:16:08.210 ,5,1,0.,24.0,0.,24.0,0.,24.0,0.,24.0
1979-07-13 23:16:32.210 ,5,0,0.,24.0,0.,24.0,0.,24.0,0.,24.0
1979-07-13 23:16:56.210 ,6,1,0.,24.0,0.,24.0,0.,24.0,0.,24.0
1979-07-13 23:17:20.210 ,6,0,0.,24.0,0.,24.0,0.,24.0,0.,24.0
1979-07-13 23:17:44.210 ,7,1,0.,24.0,0.,24.0,0.,24.0,0.,24.0
1979-07-13 23:18:08.210 ,7,0,0.,24.0,0.,24.0,0.,24.0,0.,24.0
1979-07-13 23:18:32.210 ,7,1,0.,24.0,0.,24.0,0.,24.0,0.,24.0
1979-07-13 23:18:56.210 ,7,0,0.,24.0,0.,24.0,0.,24.0,0.,24.0
1979-07-13 23:19:20.210 ,6,1,0.,24.0,0.,24.0,0.,24.0,0.,24.0
1979-07-13 23:19:44.210 ,6,0,0.,24.0,0.,24.0,0.,24.0,0.,24.0
1979-07-13 23:20:08.210 ,5,1,0.,24.0,0.,24.0,0.,24.0,0.,24.0
1979-07-13 23:20:32.210 ,5,0,0.,24.0,0.,24.0,0.,24.0,0.,24.0
1979-07-13 23:20:56.210 ,4,1,0.,24.0,0.,24.0,0.,24.0,0.,24.0
1979-07-13 23:21:20.210 ,4,0,0.,24.0,0.,24.0,0.,24.0,0.,24.0
1979-07-13 23:21:44.210 ,3,1,0.,24.0,0.,24.0,0.,24.0,0.,24.0
1979-07-13 23:22:08.210 ,3,0,0.,24.0,0.,24.0,0.,24.0,0.,24.0
1979-07-13 23:22:32.210 ,2,1,0.,24.0,0.,24.0,0.,24.0,0.,24.0
1979-07-13 23:22:56.210 ,2,0,0.,24.0,0.,24.0,0.,24.0,0.,24.0
1979-07-13 23:23:20.210 ,1,1,0.,24.0,0.,24.0,0.,24.0,0.,24.0
1979-07-13 23:23:44.210 ,1,0,0.,24.0,0.,24.0,0.,24.0,0.,24.0
1979-07-13 23:24:08.210 ,0,1,0.,24.0,0.,24.0,0.,24.0,0.,24.0
1979-07-13 23:24:32.210 ,0,0,0.,24.0,0.,24.0,0.,24.0,0.,24.0
1979-07-13 23:24:56.210 ,0,1,0.,24.0,0.,24.0,0.,24.0,0.,24.0
1979-07-13 23:25:20.210 ,0,0,0.,24.0,0.,24.0,0.,24.0,0.,24.0
1979-07-13 23:25:44.210 ,1,1,0.,24.0,0.,24.0,0.,24.0,0.,24.0
1979-07-13 23:26:08.210 ,1,0,0.,24.0,0.,24.0,0.,24.0,0.,24.0
1979-07-13 23:26:32.210 ,2,1,0.,24.0,0.,24.0,0.,24.0,0.,24.0
1979-07-13 23:26:56.210 ,2,0,0.,24.0,0.,24.0,0.,24.0,0.,24.0
1979-07-13 23:27:20.210 ,3,1,0.,24.0,0.,24.0,0.,24.0,0.,24.0
1979-07-13 23:27:44.210 ,3,0,0.,24.0,0.,24.0,0.,24.0,0.,24.0
1979-07-13 23:28:08.210 ,4,1,0.,24.0,0.,24.0,0.,24.0,0.,24.0
1979-07-13 23:28:32.210 ,4,0,0.,24.0,0.,24.0,0.,24.0,0.,24.0
1979-07-13 23:28:56.210 ,5,1,0.,24.0,0.,24.0,0.,24.0,0.,24.0
1979-07-13 23:29:20.210 ,5,0,0.,24.0,0.,24.0,0.,24.0,0.,24.0
1979-07-13 23:29:44.210 ,6,1,0.,24.0,0.,24.0,0.,24.0,0.,24.0
1979-07-13 23:30:08.210 ,6,0,0.,24.0,0.,24.0,0.,24.0,0.,24.0
1979-07-13 23:30:32.210 ,7,0,0.,24.0,0.,24.0,0.,24.0,0.,24.0
1979-07-13 23:30:56.210 ,7,0,0.,24.0,0.,24.0,0.,24.0,0.,24.0
1979-07-13 23:31:20.210 ,5,1,0.,24.0,0.,24.0,0.,24.0,0.,24.0
1979-07-13 23:31:44.210 ,1,1,0.,24.0,0.,24.0,0.,24.0,0.,24.0
1979-07-13 23:32:08.200 ,2,1,0.,24.0,0.,24.0,0.,24.0,0.,24.0
1979-07-13 23:32:32.200 ,6,1,0.,24.0,0.,24.0,0.,24.0,0.,24.0
1979-07-13 23:32:56.200 ,5,1,0.,24.0,0.,24.0,0.,24.0,0.,24.0
1979-07-13 23:33:20.200 ,1,1,0.,24.0,0.,24.0,0.,24.0,0.,24.0
1979-07-13 23:33:44.200 ,2,1,0.,24.0,0.,24.0,0.,24.0,0.,24.0
1979-07-13 23:34:08.200 ,6,1,0.,24.0,0.,24.0,0.,24.0,0.,24.0
1979-07-13 23:34:32.200 ,5,1,0.,24.0,0.,24.0,0.,24.0,0.,24.0
1979-07-13 23:34:56.200 ,1,1,0.,24.0,0.,24.0,0.,24.0,0.,24.0
1979-07-13 23:35:20.200 ,2,1,0.,24.0,0.,24.0,0.,24.0,0.,24.0
1979-07-13 23:35:44.200 ,6,1,0.,24.0,0.,24.0,0.,24.0,0.,24.0
1979-07-13 23:36:08.200 ,5,1,0.,24.0,0.,24.0,0.,24.0,0.,24.0
1979-07-13 23:36:32.200 ,1,1,0.,24.0,0.,24.0,0.,24.0,0.,24.0
1979-07-13 23:36:56.200 ,0,0,0.,24.0,0.,24.0,0.,24.0,0.,24.0
1979-07-13 23:37:20.200 ,6,1,0.,24.0,0.,24.0,0.,24.0,0.,24.0
1979-07-13 23:37:44.200 ,5,1,0.,24.0,0.,24.0,0.,24.0,0.,24.0
1979-07-13 23:38:08.200 ,1,1,0.,24.0,0.,24.0,0.,24.0,0.,24.0
1979-07-13 23:38:32.200 ,2,1,0.,24.0,0.,24.0,0.,24.0,0.,24.0
1979-07-13 23:38:56.200 ,6,1,0.,24.0,0.,24.0,0.,24.0,0.,24.0
1979-07-13 23:39:20.200 ,5,1,0.,24.0,0.,24.0,0.,24.0,0.,24.0